ARIANE 5 R/B, 38993

Orbit data source: Space-Track

ARIANE 5 R/B, 38993 is space debris in HEO originally from a launch on Sat, 10 Nov 2012 UTC launched from the French Guiana (FRGUI). Debris objects in space refer to the collection of defunct objects orbiting the Earth. Examples of debris include non-operational satellites, rocket bodies, and fragments generated from explosions, collisions, or faulty payload assembly.

Loading next visibility...
ARIANE 5 R/B details
Identifier
38993, 2012-062C
Orbit
HEO
Last TLE update9 hours ago
Origin
Flag of FRArianespace (FR)
ManufacturerEADS/LV
MissionSpacecraft
Bus & MotorESC-A, Unknown motor
Mass~5,000 kg wet, ~5,000 kg dry
Launch date (UTC)
2012-11-10 (12 years ago)
Launch vehicleUnknown
Launch site
French Guiana (FRGUI)
Object type
Payload
Rocket body
Debris
Shape & HBRCyl + 1 Nozzle, 7 m
Radar Cross Section41.627 m², Large (>1 m²)

Expand to show TLE details & history

TLE from 9 hours ago
0 ARIANE 5 R/B
1 38993U 12062C   25035.89363299  .00004662  00000-0  87066-3 0  9995
2 38993   2.6437 288.3446 6976005 321.1885   5.4230  2.68033250110333
Epoch: 2025-02-04T21:26Z
Definitive object data (Epoch: 2025-02-04T21:26:49.89Z)
Latitude0.00001°
Longitude-168.31767°
Altitude923.7 km
Speed9.537 km/s
True Right ascension19h 14m 43s
True Declination0° 00' 00"
Sunlit
Object was in daylight at TLE epoch
Visualization TLE readout
Latitude2.45041°
Longitude-99.76862°
Altitude7,851.331 km
Speed6.149 km/s
Apparent Right ascension23h 06m 13s
Apparent Declination-10° 50' 05"
Sunlit
Object is in daylight
Visualization observer readout
Local Sidereal Time08:56:08
Azimuth306.256° NW
Elevation-49.097°
Doppler factor1
Orbital elements
Apogee altitude30,794.211 km
Perigee altitude243.503 km
Semi-major axis21,896.994 km
Eccentricity0.6976005
Inclination2.6437°
RAAN288.3446°
Arg. of periapsis321.1885°
True anomaly39.70024°
Mean anomaly5.423°
Eccentric anomaly17.32678°
Mean motion0.66983 °/min
BSTAR0.00087066
Orbital period537.45 mins
Loading maneuver chart data...
Loading historical data...
Loading historical data...
Loading historical data...
Loading historical data...
Loading historical data...
Loading historical data...
Loading historical data...
Other satellites on launch #62 in the year 2012 (2012-11-10 UTC)

ARIANE 5 R/B Visibility forecast

Observer location: undefined°, undefined

Span
Click to sort rows by Start time (UTC) header in descending order
Start Az.
Max El. time (UTC)
Max El. Az.
Max El.
End time (UTC)
End Az.
363 mins2025-02-06 00:50:53.850Z238.069° WSW2025-02-06 02:53:53.850Z215.672° SW31.536°2025-02-06 06:53:53.850Z232.007° WSW
|